• Em Portugal
  • Lista de países
  • Para 7 dias
  • Temperatura da água
  • Mapas de satélite
  • Mapa do tempo
  • Widgets de tempo
  • user-avatar
    Iniciar Sessão

    Previsão horária em Mazatenango

    Hoje, 23 Novembro, Quinta-feira

    Tempo Temperatura Precipitação Vento Pressão Humidade
    00:00 +23°C° 0 mm 2 m/s 727 mmHg 74%
    01:00 +23°C° 0 mm 2 m/s 727 mmHg 74%
    02:00 +23°C° 0 mm 1 m/s 727 mmHg 73%
    03:00 +23°C° 0 mm 1 m/s 726 mmHg 73%
    04:00 +23°C° 0 mm 1 m/s 727 mmHg 72%
    05:00 +22°C° 0 mm 1 m/s 727 mmHg 71%
    06:00 +21°C° 0 mm 2 m/s 727 mmHg 71%
    07:00 +24°C° 0 mm 1 m/s 727 mmHg 66%
    08:00 +27°C° 0 mm 1 m/s 727 mmHg 61%
    09:00 +29°C° 0 mm 1 m/s 728 mmHg 56%
    10:00 +30°C° 0 mm 1 m/s 728 mmHg 52%
    11:00 +31°C° 0 mm 1 m/s 727 mmHg 48%
    12:00 +34°C° 0 mm 2 m/s 727 mmHg 45%
    13:00 +32°C° 0 mm 2 m/s 726 mmHg 50%
    14:00 +31°C° 0 mm 2 m/s 726 mmHg 55%
    15:00 +30°C° 0 mm 2 m/s 725 mmHg 60%
    16:00 +28°C° 0 mm 2 m/s 725 mmHg 68%
    17:00 +26°C° 0 mm 2 m/s 725 mmHg 76%
    18:00 +25°C° 0 mm 1 m/s 726 mmHg 84%
    19:00 +24°C° 0 mm 1 m/s 726 mmHg 82%
    20:00 +24°C° 0 mm 1 m/s 727 mmHg 80%
    21:00 +24°C° 0 mm 1 m/s 727 mmHg 78%
    22:00 +24°C° 0 mm 1 m/s 727 mmHg 77%
    23:00 +23°C° 0 mm 1 m/s 727 mmHg 75%

    Amanhã, 24 Novembro, Sexta-feira

    Tempo Temperatura Precipitação Vento Pressão Humidade
    00:00 +23°C° 0 mm 1 m/s 727 mmHg 74%
    01:00 +23°C° 0 mm 1 m/s 727 mmHg 73%
    02:00 +23°C° 0 mm 1 m/s 726 mmHg 72%
    03:00 +23°C° 0 mm 2 m/s 726 mmHg 72%
    04:00 +21°C° 0 mm 2 m/s 726 mmHg 71%
    05:00 +21°C° 0 mm 2 m/s 726 mmHg 70%
    06:00 +21°C° 0 mm 2 m/s 726 mmHg 70%
    07:00 +24°C° 0 mm 1 m/s 727 mmHg 63%
    08:00 +27°C° 0 mm 1 m/s 727 mmHg 57%
    09:00 +29°C° 0 mm 1 m/s 728 mmHg 51%
    10:00 +30°C° 0 mm 1 m/s 727 mmHg 48%
    11:00 +31°C° 0 mm 1 m/s 727 mmHg 45%
    12:00 +32°C° 0 mm 2 m/s 727 mmHg 42%
    13:00 +32°C° 0 mm 2 m/s 726 mmHg 46%
    14:00 +31°C° 0 mm 2 m/s 726 mmHg 49%
    15:00 +31°C° 0 mm 2 m/s 725 mmHg 53%
    16:00 +29°C° 0 mm 2 m/s 725 mmHg 63%
    17:00 +27°C° 0 mm 1 m/s 726 mmHg 73%
    18:00 +25°C° 0 mm 1 m/s 726 mmHg 83%
    19:00 +24°C° 0 mm 1 m/s 727 mmHg 82%
    20:00 +24°C° 0 mm 1 m/s 727 mmHg 81%
    21:00 +24°C° 0 mm 1 m/s 728 mmHg 80%
    22:00 +23°C° 0 mm 1 m/s 728 mmHg 79%
    23:00 +23°C° 0 mm 1 m/s 728 mmHg 78%

    Depois de amanhã, 25 Novembro, Sábado

    Tempo Temperatura Precipitação Vento Pressão Humidade
    00:00 +23°C° 0 mm 1 m/s 728 mmHg 77%
    01:00 +23°C° 0 mm 1 m/s 727 mmHg 77%
    02:00 +22°C° 0 mm 1 m/s 727 mmHg 76%
    03:00 +22°C° 0 mm 1 m/s 727 mmHg 76%
    04:00 +22°C° 0 mm 1 m/s 727 mmHg 73%
    05:00 +22°C° 0 mm 1 m/s 727 mmHg 70%
    06:00 +21°C° 0 mm 1 m/s 727 mmHg 68%
    07:00 +24°C° 0 mm 1 m/s 727 mmHg 58%
    08:00 +27°C° 0 mm 1 m/s 728 mmHg 48%
    09:00 +28°C° 0 mm 0 m/s 728 mmHg 38%
    10:00 +31°C° 0 mm 1 m/s 728 mmHg 36%
    11:00 +32°C° 0 mm 1 m/s 728 mmHg 34%
    12:00 +33°C° 0 mm 1 m/s 727 mmHg 31%
    13:00 +34°C° 0 mm 2 m/s 727 mmHg 34%
    14:00 +32°C° 0 mm 2 m/s 726 mmHg 37%
    15:00 +32°C° 0 mm 2 m/s 725 mmHg 40%
    16:00 +29°C° 0 mm 2 m/s 726 mmHg 49%
    17:00 +27°C° 0 mm 2 m/s 726 mmHg 57%
    18:00 +25°C° 0 mm 2 m/s 726 mmHg 66%
    19:00 +24°C° 0 mm 2 m/s 727 mmHg 67%
    20:00 +24°C° 0 mm 2 m/s 727 mmHg 68%
    21:00 +23°C° 0 mm 2 m/s 728 mmHg 69%
    22:00 +23°C° 0 mm 2 m/s 728 mmHg 69%
    23:00 +23°C° 0 mm 2 m/s 728 mmHg 70%

    26 Novembro, Domingo

    Tempo Temperatura Precipitação Vento Pressão Humidade
    00:00 +23°C° 0 mm 1 m/s 728 mmHg 70%
    01:00 +23°C° 0 mm 1 m/s 727 mmHg 71%
    02:00 +23°C° 0 mm 1 m/s 727 mmHg 71%
    03:00 +23°C° 0 mm 1 m/s 727 mmHg 72%
    04:00 +23°C° 0 mm 1 m/s 727 mmHg 72%
    05:00 +22°C° 0 mm 1 m/s 727 mmHg 72%
    06:00 +22°C° 0 mm 1 m/s 727 mmHg 72%
    07:00 +25°C° 0 mm 1 m/s 728 mmHg 65%
    08:00 +27°C° 0 mm 1 m/s 728 mmHg 58%
    09:00 +30°C° 0 mm 1 m/s 729 mmHg 52%
    10:00 +31°C° 0 mm 1 m/s 728 mmHg 50%
    11:00 +32°C° 0 mm 1 m/s 728 mmHg 48%
    12:00 +32°C° 0 mm 2 m/s 727 mmHg 46%
    13:00 +32°C° 0 mm 2 m/s 727 mmHg 49%
    14:00 +31°C° 0 mm 2 m/s 726 mmHg 52%
    15:00 +31°C° 0 mm 2 m/s 725 mmHg 56%
    16:00 +29°C° 0 mm 2 m/s 725 mmHg 63%
    17:00 +27°C° 0 mm 2 m/s 726 mmHg 70%
    18:00 +25°C° 0 mm 1 m/s 726 mmHg 77%
    19:00 +25°C° 0 mm 1 m/s 727 mmHg 75%
    20:00 +25°C° 0 mm 1 m/s 727 mmHg 74%
    21:00 +24°C° 0 mm 1 m/s 728 mmHg 73%
    22:00 +24°C° 0 mm 1 m/s 728 mmHg 72%
    23:00 +24°C° 0 mm 1 m/s 727 mmHg 71%

    27 Novembro, Segunda-feira

    Tempo Temperatura Precipitação Vento Pressão Humidade
    00:00 +24°C° 0 mm 2 m/s 727 mmHg 70%
    01:00 +23°C° 0 mm 2 m/s 727 mmHg 70%
    02:00 +23°C° 0 mm 2 m/s 727 mmHg 69%
    03:00 +23°C° 0 mm 2 m/s 726 mmHg 69%
    04:00 +23°C° 0 mm 2 m/s 727 mmHg 69%
    05:00 +23°C° 0 mm 2 m/s 727 mmHg 69%
    06:00 +21°C° 0 mm 2 m/s 727 mmHg 69%
    07:00 +25°C° 0 mm 1 m/s 728 mmHg 63%
    08:00 +27°C° 0 mm 1 m/s 728 mmHg 58%
    09:00 +29°C° 0 mm 1 m/s 728 mmHg 52%
    10:00 +30°C° 0 mm 1 m/s 728 mmHg 49%
    11:00 +31°C° 0 mm 1 m/s 727 mmHg 47%
    12:00 +34°C° 0 mm 2 m/s 727 mmHg 44%
    13:00 +32°C° 0 mm 2 m/s 726 mmHg 48%
    14:00 +31°C° 0 mm 2 m/s 725 mmHg 52%
    15:00 +30°C° 0 mm 2 m/s 725 mmHg 56%
    16:00 +28°C° 0 mm 2 m/s 725 mmHg 64%
    17:00 +27°C° 0 mm 2 m/s 725 mmHg 73%
    18:00 +25°C° 0 mm 1 m/s 726 mmHg 81%
    19:00 +24°C° 0 mm 1 m/s 726 mmHg 79%
    20:00 +24°C° 0 mm 1 m/s 727 mmHg 78%
    21:00 +23°C° 0 mm 1 m/s 727 mmHg 76%
    22:00 +23°C° 0 mm 1 m/s 727 mmHg 75%
    23:00 +23°C° 0 mm 1 m/s 727 mmHg 74%

    28 Novembro, Terça-feira

    Tempo Temperatura Precipitação Vento Pressão Humidade
    00:00 +23°C° 0 mm 1 m/s 727 mmHg 72%
    01:00 +22°C° 0 mm 1 m/s 726 mmHg 72%
    02:00 +22°C° 0 mm 1 m/s 726 mmHg 73%
    03:00 +22°C° 0 mm 1 m/s 726 mmHg 73%
    04:00 +22°C° 0 mm 1 m/s 726 mmHg 71%
    05:00 +22°C° 0 mm 1 m/s 726 mmHg 70%
    06:00 +21°C° 0 mm 1 m/s 727 mmHg 69%
    07:00 +24°C° 0 mm 1 m/s 727 mmHg 60%
    08:00 +27°C° 0 mm 1 m/s 727 mmHg 51%
    09:00 +30°C° 0 mm 1 m/s 728 mmHg 41%
    10:00 +31°C° 0 mm 1 m/s 728 mmHg 38%
    11:00 +32°C° 0 mm 1 m/s 727 mmHg 35%
    12:00 +33°C° 0 mm 1 m/s 727 mmHg 32%
    13:00 +33°C° 0 mm 1 m/s 726 mmHg 35%
    14:00 +32°C° 0 mm 2 m/s 726 mmHg 38%
    15:00 +32°C° 0 mm 2 m/s 725 mmHg 40%
    16:00 +29°C° 0 mm 2 m/s 726 mmHg 50%
    17:00 +27°C° 0 mm 2 m/s 726 mmHg 59%
    18:00 +24°C° 0 mm 1 m/s 726 mmHg 68%
    19:00 +24°C° 0 mm 1 m/s 727 mmHg 69%
    20:00 +24°C° 0 mm 1 m/s 727 mmHg 69%
    21:00 +23°C° 0 mm 1 m/s 728 mmHg 70%
    22:00 +23°C° 0 mm 1 m/s 728 mmHg 70%
    23:00 +23°C° 0 mm 1 m/s 728 mmHg 70%
    Mostrar mais